Weather in Burg bei Magdeburg

Germany     52°16′04″N   11°50′53″E
temp.,
°C
wind,
m/s
gust,
m/s
humid.,
%
clouds,
%
prec.,
mm/h
press.,
hPa
HPBL,
m
7 may, fri
fri723:00+6ssw1165100 0.0 100510
02:00+5wnw1169100 0.1 100511
05:00+4w3694100 1.2 1005422
08:00+5w51092100 6.3 1007955
11:00+4nw3596100 0.2 1010406
14:00+7wnw687675 0.7 10111170
17:00+9wnw6972100 1.1 10131425
20:00+7w498214 1.9 1015244
8 may, sat
sat823:00+3wsw47895 0.0 1017122
02:00+2wsw37925 0.0 1018112
05:00+1wsw34934 0.0 101960
08:00+5wsw24817 0.0 1019226
11:00+10sw3556100 0.0 10191265
14:00+13sw354799 0.0 10181755
17:00+14sse354764 0.0 10161896
20:00+11sse41069100 0.0 1015237
9 may, sun
sun923:00+11sse51055100 0.0 1014269
02:00+10sse51263100 0.0 1012287
05:00+8s4117999 0.0 1011177
08:00+12s41078100 0.0 1011236
11:00+18s686499 0.0 1010528
14:00+22s675885 0.0 1009950
17:00+23sse5961100 0.0 10081043
20:00+18se51375100 0.0 1008275
10 may, mon
mon1023:00+16sse51477100 0.0 1007271
02:00+13sse4118674 0.0 1007195
05:00+10se4109187 0.0 1007156
08:00+13se59787 0.0 1006248
11:00+19sse57662 0.0 1006525
14:00+24s575734 0.0 10071113
17:00+22wnw6867100 0.1 1008757
20:00+17nw357970 0.1 1010122
11 may, tue
tue1123:00+15n498297 0.0 1010264
02:00+13n41093100 0.3 1009390
05:00+12n61192100 0.0 1008379
08:00+11nnw5987100 0.1 1010556
11:00+11nnw5887100 0.0 1010496
14:00+13n4584100 0.0 1009590
17:00+13n4585100 0.0 1009575
20:00+12nnw3686100 0.0 1008455